Flag Weather past 2 weeks in Wiesbaden, Hesse, Germany

Now
43 °F

Passing clouds.


Feels Like: 36 °F
Forecast: 37 / 43 °F
Wind: 12 mph from East

Location: Wiesbaden Airport

Current Time: Nov 27, 2014 at 7:50:42 PM

Latest Report: Nov 27, 2014 at 6:58 PM


Visibility: N/A

Pressure: 29.84 "Hg

Humidity: 81%

Dew point: 37 °F

Location of WiesbadenLocation

Historic Weather in Wiesbaden — Graph

°F

Wiesbaden temperature yesterday

Maximum temperature yesterday: 41 °F (at 8:58 PM)
Minimum temperature yesterday: 37 °F (at 5:58 AM)
Average temperature yesterday: 40 °F

Past Weeks' High & Low Weather Summary

 TemperatureHumidityPressure
High54 °F (Nov 14, 1:58 PM)100% (Nov 12, 6:58 PM)30.36 "Hg (Nov 12, 6:58 PM)
Low34 °F (Nov 25, 1:58 AM)71% (Nov 21, 1:58 PM)29.53 "Hg (Nov 16, 5:59 AM)
Average45 °F92%29.99 "Hg
* Reported Nov 12 6:58 PM — Nov 27 6:58 PM, Wiesbaden, Weather by CustomWeather, © 2014

Note: Actual official high and low records may vary slightly from our data, if they occured in-between our weather recording intervals... More about our weather records

Advertising

Wiesbaden weather history for previous 24 hours

 ConditionsComfort  
Time TempWeatherWind HumidityBarometerVisibility
6:58 PM
Nov 27
43 °FPassing clouds.12 mph81%29.84 "HgN/A
5:58 PM42 °FPassing clouds.10 mph85%29.83 "HgN/A
4:58 PM42 °FMostly cloudy.10 mph83%29.83 "HgN/A
3:58 PM43 °FBroken clouds.9 mph83%29.83 "HgN/A
2:58 PM43 °FSunny.8 mph81%29.82 "HgN/A
1:58 PM43 °FPartly sunny.10 mph79%29.81 "HgN/A
12:58 PM43 °FOvercast.12 mph80%29.85 "HgN/A
11:58 AM42 °FOvercast.9 mph82%29.86 "HgN/A
10:58 AM41 °FOvercast.12 mph82%29.87 "HgN/A
9:58 AM40 °FOvercast.9 mph84%29.88 "HgN/A
8:58 AM39 °FOvercast.7 mph87%29.89 "HgN/A
7:58 AM40 °FOvercast.9 mph85%29.88 "HgN/A
6:58 AM40 °FOvercast.10 mph86%29.89 "HgN/A
5:58 AM39 °FOvercast.9 mph87%29.90 "HgN/A
4:58 AM41 °FOvercast.7 mph81%29.90 "HgN/A
3:58 AM40 °FOvercast.8 mph82%29.92 "HgN/A
2:58 AM41 °FMostly cloudy.8 mph81%29.93 "HgN/A
1:58 AM41 °FOvercast.8 mph81%29.94 "HgN/A
12:58 AM41 °FMostly cloudy.8 mph81%29.96 "HgN/A
11:58 PM
Nov 26
41 °FOvercast.8 mph81%29.97 "HgN/A
10:58 PM41 °FMostly cloudy.9 mph81%29.98 "HgN/A
9:58 PM41 °FOvercast.8 mph80%29.99 "HgN/A
8:58 PM41 °FMostly cloudy.8 mph81%30.00 "HgN/A
7:58 PM41 °FOvercast.8 mph81%30.01 "HgN/A
Weather by CustomWeather, © 2014

See weather overviewHow to use our weather pages